TimeCDT,TemperatureF,Dew PointF,Humidity,Sea Level PressureIn,VisibilityMPH,Wind Direction,Wind SpeedMPH,Gust SpeedMPH,PrecipitationIn,Events,Conditions,WindDirDegrees,DateUTC
12:55 AM,30.0,21.9,72,30.37,10.0,Calm,Calm,-,N/A,,Overcast,0,2012-10-28 05:55:00
1:55 AM,30.0,21.9,72,30.36,10.0,ESE,3.5,-,N/A,,Overcast,110,2012-10-28 06:55:00
2:55 AM,30.9,21.0,67,30.37,10.0,Calm,Calm,-,N/A,,Overcast,0,2012-10-28 07:55:00
3:55 AM,30.0,23.0,75,30.35,10.0,ESE,3.5,-,N/A,,Overcast,120,2012-10-28 08:55:00
4:55 AM,28.9,23.0,78,30.35,10.0,East,4.6,-,N/A,,Mostly Cloudy,100,2012-10-28 09:55:00
5:55 AM,28.9,21.9,75,30.35,10.0,SE,6.9,-,N/A,,Overcast,130,2012-10-28 10:55:00
6:55 AM,30.0,21.9,72,30.35,10.0,ESE,3.5,-,N/A,,Overcast,120,2012-10-28 11:55:00
7:55 AM,30.0,21.0,69,30.36,10.0,South,3.5,-,N/A,,Mostly Cloudy,170,2012-10-28 12:55:00
8:55 AM,32.0,23.0,69,30.37,10.0,South,4.6,-,N/A,,Mostly Cloudy,190,2012-10-28 13:55:00
9:55 AM,33.8,23.0,65,30.30,10.0,SSW,6.9,-,N/A,,Mostly Cloudy,200,2012-10-28 14:55:00
10:55 AM,34.0,25.0,70,30.37,9.0,SSW,4.6,-,0.00,Snow,Light Snow,210,2012-10-28 15:55:00
11:27 AM,33.8,24.8,70,30.31,1.8,SW,8.1,-,0.00,Snow,Light Snow,230,2012-10-28 16:27:00
11:34 AM,33.8,26.6,75,30.31,1.5,SW,6.9,-,0.00,Snow,Light Snow,230,2012-10-28 16:34:00
11:55 AM,33.1,27.0,78,30.37,1.0,SW,9.2,-,0.00,Snow,Light Snow,230,2012-10-28 16:55:00
12:55 PM,35.1,28.9,78,30.35,2.0,WSW,9.2,-,0.01,Snow,Light Snow,250,2012-10-28 17:55:00
1:04 PM,35.6,28.4,75,30.29,5.0,WSW,10.4,-,0.00,Snow,Light Snow,240,2012-10-28 18:04:00
1:17 PM,35.6,28.4,75,30.29,9.0,SW,9.2,-,0.00,Snow,Light Snow,220,2012-10-28 18:17:00
1:55 PM,37.9,26.1,62,30.35,10.0,SW,5.8,16.1,0.00,,Mostly Cloudy,220,2012-10-28 18:55:00
2:55 PM,37.9,26.1,62,30.33,10.0,WSW,3.5,-,0.00,,Overcast,240,2012-10-28 19:55:00
3:55 PM,37.0,28.0,70,30.34,8.0,SW,8.1,-,0.00,Snow,Light Snow,230,2012-10-28 20:55:00
4:55 PM,37.9,28.0,68,30.34,9.0,Calm,Calm,-,0.00,Snow,Light Snow,0,2012-10-28 21:55:00
5:55 PM,37.0,28.9,73,30.34,10.0,Calm,Calm,-,0.00,,Overcast,0,2012-10-28 22:55:00
6:55 PM,35.1,28.0,76,30.35,10.0,East,3.5,-,N/A,,Mostly Cloudy,90,2012-10-28 23:55:00
7:55 PM,32.0,27.0,82,30.36,10.0,Calm,Calm,-,N/A,,Partly Cloudy,0,2012-10-29 00:55:00
8:55 PM,32.0,27.0,82,30.36,10.0,SE,3.5,-,N/A,,Mostly Cloudy,130,2012-10-29 01:55:00
9:55 PM,32.0,28.0,85,30.36,10.0,East,8.1,-,N/A,,Mostly Cloudy,100,2012-10-29 02:55:00
10:55 PM,34.0,30.0,85,30.37,10.0,East,3.5,-,N/A,,Mostly Cloudy,100,2012-10-29 03:55:00
11:55 PM,35.1,30.0,82,30.37,10.0,ESE,3.5,-,N/A,,Mostly Cloudy,110,2012-10-29 04:55:00